Weather History for Aberdeen, SD

Change the Weather History Date:

Sunday, August 4, 2013

  Actual Average Record
Temperature  
Mean Temperature 65 °F 71 °F  
Max Temperature 73 °F 84 °F 107 °F (1934)
Min Temperature 56 °F 59 °F 42 °F (1978)
Degree Days  
Heating Degree Days 0 0  
Month to date heating degree days 4 0  
Since 1 June heating degree days 117 90  
Since 1 July heating degree days 36 14  
Cooling Degree Days 0 7  
Month to date cooling degree days 0 28  
Year to date cooling degree days 311 351  
Since 1 June cooling degree days 290 328  
Growing Degree Days 14 (Base 50)    
Moisture  
Dew Point 55 °F    
Average Humidity 75    
Maximum Humidity 93    
Minimum Humidity 57    
Precipitation  
Precipitation 0.01 in 0.08 in 0.96 in (1926)
Month to date precipitation 0.01 0.31  
Year to date precipitation 13.43 14.17  
Sea Level Pressure  
Sea Level Pressure 30.09 in    
Wind  
Wind Speed 8 mph (SSE)    
Max Wind Speed 17 mph    
Max Gust Speed 22 mph    
Visibility 10 miles    
Events Rain    
T = Trace of Precipitation, MM = Missing Value Source: NWS Daily Summary

Daily Weather History Graph

Daily Weather History Graph

Search for Another Location

Airport:

Trip Planner

Search our weather history database for the weather conditions in past years. The results will help you decide how hot, cold, wet, or windy it might be!

Date:

Astronomy

Aug. 04, 2013 Rise Set
Actual Time 6:21 AM CDT 8:57 PM CDT
Civil Twilight 5:47 AM CDT 9:30 PM CDT
Nautical Twilight 5:05 AM CDT 10:12 PM CDT
Astronomical Twilight 4:16 AM CDT 11:00 PM CDT
Moon 4:22 AM CDT (8/4) 7:21 PM CDT (8/4)
Length of Visible Light 15h 42m
Length of Day
14h 35m
Waning Crescent, 4% of the Moon is Illuminated
Aug 4
Waning Crescent
Aug 6
New
Aug 14
First Quarter
Aug 20
Full
Aug 28
Last Quarter

Hourly Weather History & Observations

Time (CDT) Temp. Dew Point Humidity Pressure Visibility Wind Dir Wind Speed Gust Speed Precip Events Conditions
12:53 AM 60.1 °F 52.0 °F 75% 30.22 in 10.0 mi ESE 6.9 mph - N/A   Clear
1:53 AM 57.9 °F 53.1 °F 84% 30.21 in 10.0 mi East 5.8 mph - N/A   Clear
2:53 AM 57.9 °F 52.0 °F 81% 30.19 in 10.0 mi East 4.6 mph - N/A   Clear
3:53 AM 57.9 °F 51.1 °F 78% 30.17 in 10.0 mi ESE 4.6 mph - N/A   Clear
4:53 AM 57.9 °F 51.1 °F 78% 30.14 in 10.0 mi ESE 8.1 mph - N/A   Mostly Cloudy
5:53 AM 57.0 °F 52.0 °F 83% 30.17 in 10.0 mi SSW 4.6 mph - 0.00 in Rain Light Rain
6:53 AM 57.0 °F 53.1 °F 87% 30.19 in 10.0 mi Calm Calm - 0.01 in   Overcast
7:53 AM 57.0 °F 54.0 °F 89% 30.20 in 10.0 mi WSW 4.6 mph - 0.00 in Rain Light Rain
8:53 AM 57.9 °F 54.0 °F 87% 30.15 in 10.0 mi South 11.5 mph - 0.00 in   Partly Cloudy
9:53 AM 61.0 °F 53.1 °F 75% 30.17 in 10.0 mi SSE 9.2 mph - N/A   Overcast
10:53 AM 66.9 °F 55.0 °F 66% 30.15 in 10.0 mi SSE 12.7 mph - N/A   Scattered Clouds
11:53 AM 70.0 °F 55.9 °F 61% 30.13 in 10.0 mi South 10.4 mph - N/A   Clear
12:53 PM 71.1 °F 55.9 °F 59% 30.11 in 10.0 mi SSE 12.7 mph 18.4 mph N/A   Scattered Clouds
1:53 PM 72.0 °F 55.9 °F 57% 30.08 in 10.0 mi South 13.8 mph - N/A   Mostly Cloudy
2:53 PM 71.1 °F 55.9 °F 59% 30.06 in 10.0 mi SSE 11.5 mph - N/A   Overcast
3:53 PM 70.0 °F 55.9 °F 61% 30.05 in 10.0 mi South 10.4 mph - 0.00 in   Overcast
4:53 PM 70.0 °F 57.9 °F 65% 30.03 in 10.0 mi South 9.2 mph - N/A   Overcast
5:53 PM 70.0 °F 57.9 °F 65% 30.02 in 10.0 mi South 5.8 mph - N/A   Overcast
6:53 PM 69.1 °F 59.0 °F 70% 29.99 in 10.0 mi SSE 6.9 mph - N/A   Overcast
7:53 PM 70.0 °F 59.0 °F 68% 29.96 in 10.0 mi South 11.5 mph - N/A   Overcast
8:53 PM 68.0 °F 59.0 °F 73% 29.97 in 10.0 mi South 9.2 mph - N/A   Overcast
9:53 PM 66.9 °F 57.9 °F 73% 29.98 in 10.0 mi SSW 6.9 mph - N/A   Overcast
10:38 PM 66.2 °F 59.0 °F 78% 29.99 in 10.0 mi West 4.6 mph - N/A   Overcast
10:53 PM 66.0 °F 59.0 °F 78% 29.97 in 10.0 mi Calm Calm - N/A   Overcast
11:53 PM 63.0 °F 60.1 °F 90% 29.94 in 8.0 mi SSE 8.1 mph - N/A   Overcast